Home > Weather > Graz > Past weeks

Flag for Austria Past Weather in Graz, Styria, Austria — Yesterday and Last 2 Weeks

Now
61 °F

Fog.


Feels Like: 61 °F
Forecast: 63 / 74 °F
Wind: 3 mph from South

Location: Graz-Thalerhof-Flughafen

Current Time: Aug 29, 2016 at 5:54:10 AM

Latest Report: Aug 29, 2016 at 5:20 AM


Visibility: 4 mi

Pressure: 30.01 "Hg

Humidity: 100%

Dew Point: 61 °F

Location of GrazLocation

Past Weather in Graz — Graph

°F

Graz Temperature Yesterday

Maximum temperature yesterday: 81 °F (at 1:50 PM)
Minimum temperature yesterday: 55 °F (at 6:20 AM)
Average temperature yesterday: 69 °F

High & Low Weather Summary for the Past Weeks

 TemperatureHumidityPressure
High81 °F (Aug 14, 3:50 PM)100% (Aug 14, 4:20 AM)30.36 "Hg (Aug 14, 4:20 AM)
Low50 °F (Aug 23, 3:20 AM)36% (Aug 23, 1:50 PM)29.83 "Hg (Aug 17, 5:50 AM)
Average66 °F78%30.11 "Hg
* Reported Aug 14 4:20 AM — Aug 29 4:20 AM, Graz, Weather by CustomWeather, © 2016

Note: Actual official high and low records may vary slightly from our data, if they occured in-between our weather recording intervals... More about our weather records

Advertising

Graz Weather History for the Previous 24 Hours

Scroll right to see more
 ConditionsComfort  
Time TempWeatherWind HumidityBarometerVisibility
4:20 AM
Mon, Aug 29
63 °FMild.2 mph94%30.04 "Hg4 mi
3:50 AM63 °FPassing clouds.3 mph94%30.04 "Hg6 mi
3:20 AM63 °FMild.2 mph94%30.04 "HgN/A
2:50 AM63 °FMild.2 mph94%30.07 "HgN/A
2:20 AM63 °FMild.1 mph94%30.07 "Hg6 mi
1:50 AM64 °FFog.1 mph94%30.07 "Hg4 mi
1:20 AM64 °FMild.2 mph94%30.07 "Hg4 mi
12:50 AM64 °FMild.1 mph94%30.07 "HgN/A
12:20 AM64 °FMild.1 mph94%30.07 "Hg5 mi
11:50 PM
Sun, Aug 28
66 °FMild.1 mph88%30.07 "HgN/A
11:20 PM66 °FClear.1 mph88%30.07 "Hg10 mi
10:50 PM66 °FClear.2 mph88%30.07 "Hg10 mi
10:20 PM68 °FClear.2 mph88%30.07 "Hg10 mi
9:50 PM70 °FClear.2 mph83%30.07 "Hg10 mi
9:20 PM70 °FClear.3 mph83%30.07 "Hg10 mi
8:50 PM72 °FClear.1 mph78%30.07 "Hg10 mi
8:20 PM72 °FSunny.1 mph78%30.07 "Hg10 mi
7:50 PM73 °FSunny.1 mph74%30.04 "Hg10 mi
7:20 PM75 °FSunny.3 mph69%30.04 "Hg10 mi
6:50 PM77 °FSunny.5 mph61%30.04 "Hg10 mi
6:20 PM79 °FSunny.6 mph58%30.07 "Hg10 mi
5:50 PM81 °FSunny.5 mph58%30.07 "Hg10 mi
5:20 PM81 °FPassing clouds.7 mph51%30.07 "HgN/A
4:50 PM81 °FPassing clouds.5 mph54%30.07 "HgN/A
4:20 PM81 °FPassing clouds.5 mph58%30.07 "HgN/A
3:50 PM81 °FPassing clouds.3 mph58%30.07 "HgN/A
3:20 PM81 °FPassing clouds.5 mph54%30.07 "HgN/A
2:50 PM81 °FPassing clouds.5 mph54%30.09 "HgN/A
2:20 PM81 °FPassing clouds.5 mph58%30.09 "HgN/A
1:50 PM81 °FPassing clouds.5 mph58%30.09 "HgN/A
1:20 PM79 °FPassing clouds.3 mph58%30.09 "HgN/A
12:50 PM77 °FPassing clouds.3 mph61%30.12 "HgN/A
12:20 PM77 °FPassing clouds.6 mph57%30.12 "HgN/A
11:50 AM75 °FSunny.3 mph65%30.12 "Hg10 mi
11:20 AM75 °FPassing clouds.5 mph65%30.12 "HgN/A
10:50 AM73 °FSunny.2 mph69%30.12 "Hg10 mi
10:20 AM72 °FPassing clouds.2 mph73%30.12 "HgN/A
9:50 AM70 °FSunny.2 mph78%30.12 "Hg10 mi
9:20 AM66 °FPassing clouds.2 mph88%30.12 "Hg5 mi
8:50 AM64 °FFog.2 mph88%30.12 "Hg2 mi
8:20 AM61 °FRain. Cloudy.2 mph100%30.12 "Hg1 mi
7:50 AM61 °FScattered clouds.1 mph94%30.12 "Hg1 mi
7:20 AM59 °FFog.1 mph100%30.12 "Hg0 mi
6:50 AM57 °FCool.1 mph100%30.12 "Hg1 mi
6:20 AM55 °FFog.3 mph100%30.12 "Hg0 mi
5:50 AM57 °FRain. Overcast.2 mph100%30.12 "Hg1 mi
5:20 AM57 °FRain. Overcast.No wind100%30.12 "Hg1 mi
Weather by CustomWeather, © 2016

See weather overviewHow to use our weather pages